�N����,����,�~����,�C��,���x,�C��,����,���ϕ���,�ő�u�ԕ���,�ő厞����,���˗�,�I�_���x,�n�����x,�ő啗���N��,DTYPE
"18/12/20","00:10",0.0,4.7,90.4,1015.2,321.1,2.0,2.8,319.8,0.00,3.3,7.8,"00:06:40",1
"18/12/20","00:20",0.0,4.1,91.7,1015.2,300.4,1.6,2.1,314.3,0.00,2.9,7.7,"00:12:40",1
"18/12/20","00:30",0.0,4.0,92.2,1015.2,312.4,1.5,1.9,314.4,0.00,2.9,7.8,"00:20:16",1
"18/12/20","00:40",0.0,3.8,93.2,1014.7,311.9,1.7,2.6,323.4,0.00,2.8,7.7,"00:31:04",1
"18/12/20","00:50",0.0,3.8,93.6,1014.7,312.2,2.0,2.5,322.1,0.00,2.9,7.4,"00:42:24",1
"18/12/20","01:00",0.0,3.6,93.8,1014.9,297.9,1.3,2.1,311.4,0.00,2.7,7.5,"00:54:16",1
"18/12/20","01:10",0.0,3.5,94.7,1014.9,277.3,0.7,1.4,301.3,0.00,2.8,7.6,"01:09:56",1
"18/12/20","01:20",0.0,3.3,94.1,1014.9,301.0,1.5,2.4,319.3,0.00,2.5,7.5,"01:13:28",1
"18/12/20","01:30",0.0,3.2,95.6,1014.7,301.1,1.8,2.6,315.6,0.00,2.6,7.4,"01:27:28",1
"18/12/20","01:40",0.0,3.1,95.5,1014.7,288.0,1.3,1.8,311.8,0.00,2.5,7.4,"01:35:28",1
"18/12/20","01:50",0.0,3.1,95.9,1015.2,305.6,2.0,2.5,317.9,0.00,2.6,7.5,"01:45:12",1
"18/12/20","02:00",0.0,3.0,95.8,1015.2,306.5,1.8,2.5,320.2,0.00,2.4,7.3,"01:55:28",1
"18/12/20","02:10",0.0,3.1,97.0,1015.2,298.8,1.7,2.2,307.1,0.00,2.7,7.2,"02:02:24",1
"18/12/20","02:20",0.0,3.1,96.2,1015.2,287.0,1.1,2.0,309.6,0.00,2.6,7.2,"02:10:16",1
"18/12/20","02:30",0.0,3.1,96.9,1014.7,282.5,0.8,2.1,314.0,0.00,2.7,7.2,"02:29:44",1
"18/12/20","02:40",0.0,3.0,96.6,1014.9,308.2,2.1,3.2,323.9,0.00,2.6,7.3,"02:35:44",1
"18/12/20","02:50",0.0,3.1,97.8,1014.9,296.7,1.2,2.6,317.6,0.00,2.8,7.2,"02:40:08",1
"18/12/20","03:00",0.0,3.2,97.1,1015.4,306.3,1.6,2.8,323.8,0.00,2.8,7.3,"02:54:24",1
"18/12/20","03:10",0.0,3.2,97.4,1015.2,310.0,1.8,2.9,322.5,0.00,2.9,7.2,"03:08:32",1
"18/12/20","03:20",0.0,3.4,97.7,1015.2,295.7,1.5,2.8,323.8,0.00,3.1,7.2,"03:10:56",1
"18/12/20","03:30",0.0,3.5,97.8,1015.2,297.8,1.6,2.2,313.3,0.00,3.2,7.3,"03:28:40",1
"18/12/20","03:40",0.0,3.8,97.8,1015.2,324.0,2.1,2.6,318.0,0.00,3.5,7.1,"03:33:20",1
"18/12/20","03:50",0.0,3.6,97.6,1014.9,307.5,1.8,2.6,318.4,0.00,3.3,7.2,"03:41:52",1
"18/12/20","04:00",0.0,3.4,97.8,1014.7,290.7,1.2,1.8,317.4,0.00,3.1,7.2,"03:52:00",1
"18/12/20","04:10",0.0,3.4,98.3,1014.7,291.1,1.2,1.8,306.7,0.00,3.2,7.2,"04:03:12",1
"18/12/20","04:20",0.0,3.3,96.9,1014.9,295.6,1.3,2.7,314.8,0.00,2.9,7.2,"04:10:02",1
"18/12/20","04:30",0.0,3.2,98.4,1014.7,300.9,1.8,2.8,318.5,0.00,3.0,7.0,"04:20:08",1
"18/12/20","04:40",0.0,3.5,97.7,1014.5,320.3,2.2,2.6,320.0,0.00,3.2,7.2,"04:33:12",1
"18/12/20","04:50",0.0,3.3,97.8,1014.7,306.4,1.8,3.1,322.5,0.00,3.0,7.1,"04:44:08",1
"18/12/20","05:00",0.0,3.5,98.6,1014.5,293.0,1.5,3.2,314.3,0.00,3.3,7.1,"04:55:52",1
"18/12/20","05:10",0.0,3.8,97.3,1014.5,297.5,1.2,2.1,316.0,0.00,3.5,6.9,"05:04:18",1
"18/12/20","05:20",0.0,3.7,98.6,1014.7,283.1,1.3,1.9,316.2,0.00,3.5,7.0,"05:15:52",1
"18/12/20","05:30",0.0,4.1,98.1,1015.2,325.9,1.3,2.6,323.1,0.00,3.9,7.2,"05:22:00",1
"18/12/20","05:40",0.0,4.0,97.4,1015.2,293.9,1.5,1.9,316.2,0.00,3.7,7.2,"05:31:12",1
"18/12/20","05:50",0.0,3.8,98.3,1014.9,303.0,1.3,2.2,315.5,0.00,3.6,6.9,"05:43:12",1
"18/12/20","06:00",0.0,3.9,97.8,1014.9,276.5,0.8,1.7,272.0,0.00,3.6,7.4,"05:54:40",1
"18/12/20","06:10",0.0,3.8,98.2,1014.9,295.4,1.1,1.8,313.1,0.00,3.6,7.2,"06:02:40",1
"18/12/20","06:20",0.0,3.8,97.9,1015.2,307.9,2.0,2.2,315.6,0.00,3.5,7.2,"06:13:28",1
"18/12/20","06:30",0.0,3.8,98.7,1015.2,317.2,1.5,2.1,318.8,0.00,3.7,7.3,"06:20:08",1
"18/12/20","06:40",0.0,3.8,97.7,1015.2,300.4,1.5,2.4,319.8,0.00,3.5,7.3,"06:32:16",1
"18/12/20","06:50",0.0,3.5,98.7,1015.4,288.7,1.5,2.5,323.3,0.00,3.4,7.2,"06:40:02",1
"18/12/20","07:00",0.0,3.8,98.0,1015.4,312.7,1.6,2.7,320.2,0.00,3.6,7.1,"06:50:08",1
"18/12/20","07:10",0.0,3.9,98.3,1015.4,302.1,1.5,2.4,308.6,0.00,3.7,7.1,"07:02:34",1
"18/12/20","07:20",0.0,4.0,98.4,1015.4,304.5,1.1,2.1,317.7,0.00,3.8,7.1,"07:19:12",1
"18/12/20","07:30",0.0,4.0,97.9,1015.6,284.8,1.0,2.1,321.5,0.00,3.7,7.2,"07:21:12",1
"18/12/20","07:40",0.0,4.0,99.1,1015.6,307.5,1.5,2.0,309.9,0.00,3.9,7.2,"07:35:20",1
"18/12/20","07:50",0.0,4.3,98.1,1015.9,296.6,1.1,2.1,319.3,0.00,4.1,7.3,"07:41:52",1
"18/12/20","08:00",0.0,4.5,98.5,1016.1,299.6,1.0,2.1,315.9,0.00,4.3,7.1,"07:56:00",1
"18/12/20","08:10",0.0,4.7,98.3,1015.6,314.4,1.8,2.7,326.7,0.00,4.5,7.2,"08:07:04",1
"18/12/20","08:20",0.0,5.0,98.3,1015.6,295.5,1.6,2.2,311.3,0.00,4.8,7.3,"08:12:00",1
"18/12/20","08:30",0.0,5.2,98.3,1016.1,285.2,1.1,1.3,287.5,0.01,5.0,7.1,"08:26:40",1
"18/12/20","08:40",0.0,5.6,98.4,1016.4,308.4,1.6,2.4,315.7,0.05,5.4,7.3,"08:39:20",1
"18/12/20","08:50",0.0,6.1,98.0,1016.6,294.8,1.5,2.5,316.4,0.04,5.8,7.6,"08:40:16",1
"18/12/20","09:00",0.0,6.6,98.1,1016.8,281.5,1.2,1.4,268.7,0.05,6.4,7.6,"08:52:00",1
"18/12/20","09:10",0.0,6.9,97.6,1016.8,288.9,0.6,1.1,281.0,0.06,6.6,7.5,"09:01:04",1
"18/12/20","09:20",0.0,7.0,97.9,1017.1,294.3,1.1,1.9,320.0,0.04,6.7,7.5,"09:17:12",1
"18/12/20","09:30",0.0,6.9,97.7,1017.3,321.2,0.6,1.3,331.2,0.04,6.6,7.7,"09:28:24",1
"18/12/20","09:40",0.0,6.8,98.1,1017.3,320.1,1.2,2.0,336.2,0.06,6.6,7.8,"09:35:20",1
"18/12/20","09:50",0.0,7.9,96.6,1017.5,293.9,1.2,2.0,316.9,0.12,7.4,8.0,"09:46:08",1
"18/12/20","10:00",0.0,8.5,95.7,1017.3,280.0,1.1,1.4,315.0,0.16,7.9,8.1,"09:51:20",1
"18/12/20","10:10",0.0,8.8,94.2,1017.3,258.7,1.2,1.7,253.4,0.16,8.0,8.2,"10:05:04",1
"18/12/20","10:20",0.0,9.3,89.9,1017.5,264.8,1.1,1.7,261.1,0.12,7.8,8.2,"10:13:12",1
"18/12/20","10:30",0.0,10.0,86.9,1017.3,306.4,1.1,2.2,330.5,0.10,8.0,8.2,"10:26:56",1
"18/12/20","10:40",0.0,9.7,86.3,1017.8,303.8,0.8,2.8,323.9,0.14,7.6,8.5,"10:37:44",1
"18/12/20","10:50",0.0,10.1,83.7,1017.5,226.1,0.5,1.0,287.0,0.22,7.5,8.7,"10:40:40",1
"18/12/20","11:00",0.0,10.4,82.1,1017.8,319.8,0.5,1.1,290.5,0.16,7.5,8.8,"10:52:08",1
"18/12/20","11:10",0.0,10.6,81.2,1018.0,231.3,0.5,1.1,163.1,0.13,7.6,8.9,"11:08:08",1
"18/12/20","11:20",0.0,10.8,80.6,1018.0,208.3,0.6,1.2,128.2,0.16,7.6,9.1,"11:16:16",1
"18/12/20","11:30",0.0,10.9,79.5,1017.8,199.4,0.5,1.1,117.4,0.07,7.5,9.1,"11:22:24",1
"18/12/20","11:40",0.0,10.9,79.6,1017.8,170.7,0.3,1.1,152.8,0.03,7.6,9.1,"11:31:04",1
"18/12/20","11:50",0.0,10.7,80.0,1017.1,279.1,0.5,1.0,321.2,0.01,7.4,9.1,"11:48:26",1
"18/12/20","12:00",0.0,10.7,80.4,1017.1,286.2,0.2,0.8,293.5,0.01,7.5,9.3,"11:53:04",1
"18/12/20","12:10",0.0,10.6,80.8,1016.8,271.0,0.6,0.9,266.1,0.02,7.5,9.3,"12:02:40",1
"18/12/20","12:20",0.0,10.7,80.8,1016.8,326.9,0.3,1.1,323.2,0.01,7.6,9.2,"12:14:08",1
"18/12/20","12:30",0.0,10.6,81.2,1016.6,278.7,0.7,1.2,283.7,0.00,7.6,9.3,"12:24:36",1
"18/12/20","12:40",0.0,10.7,81.6,1016.8,317.0,1.6,2.5,322.0,0.00,7.7,9.5,"12:39:22",1
"18/12/20","12:50",0.2,10.3,83.4,1016.8,313.8,2.0,2.8,319.7,0.00,7.7,9.1,"12:40:24",1
"18/12/20","13:00",0.6,10.0,85.2,1016.6,280.3,1.2,1.9,323.9,0.00,7.7,9.4,"12:59:12",1
"18/12/20","13:10",1.0,9.8,87.6,1016.4,297.3,1.2,2.4,313.8,0.02,7.9,9.3,"13:09:44",1
"18/12/20","13:20",0.2,9.7,88.9,1016.4,299.9,1.5,2.4,320.9,0.02,8.0,9.4,"13:14:32",1
"18/12/20","13:30",0.0,9.6,90.5,1016.1,304.6,1.1,1.7,318.4,0.02,8.2,9.3,"13:25:04",1
"18/12/20","13:40",0.2,9.4,91.1,1015.9,264.7,0.8,1.1,304.3,0.02,8.1,9.3,"13:32:00",1
"18/12/20","13:50",0.0,9.4,92.1,1015.9,305.4,0.5,1.3,322.1,0.02,8.2,9.6,"13:46:36",1
"18/12/20","14:00",0.0,9.4,92.9,1015.9,277.3,0.5,0.8,288.4,0.01,8.4,9.4,"13:59:44",1
"18/12/20","14:10",0.0,9.5,93.3,1015.9,263.5,0.8,1.3,247.7,0.01,8.5,9.3,"14:09:30",1
"18/12/20","14:20",0.0,9.6,93.8,1015.6,237.4,1.2,2.5,236.7,0.06,8.7,9.4,"14:12:24",1
"18/12/20","14:30",0.2,9.7,94.1,1015.9,294.7,0.6,1.2,328.4,0.07,8.8,9.7,"14:23:54",1
"18/12/20","14:40",0.0,9.8,94.3,1015.9,299.0,1.2,1.7,313.6,0.07,9.0,9.7,"14:33:48",1
"18/12/20","14:50",0.0,9.9,94.1,1016.4,269.6,1.1,1.3,294.7,0.07,9.0,9.6,"14:40:52",1
"18/12/20","15:00",0.0,9.9,94.5,1016.4,270.7,0.6,0.8,251.7,0.03,9.1,9.7,"14:50:34",1
"18/12/20","15:10",0.0,10.0,94.5,1016.4,287.2,0.6,1.1,328.3,0.01,9.2,9.7,"15:01:36",1
"18/12/20","15:20",0.0,9.9,94.7,1016.6,270.3,1.1,1.6,317.9,0.01,9.1,9.8,"15:19:04",1
"18/12/20","15:30",0.0,9.9,95.0,1016.8,280.9,0.7,0.9,286.6,0.01,9.2,9.7,"15:20:08",1
"18/12/20","15:40",0.0,9.9,95.0,1016.4,265.8,1.2,1.9,246.6,0.02,9.2,9.7,"15:38:32",1
"18/12/20","15:50",0.0,10.1,95.1,1016.6,298.5,1.2,2.0,326.0,0.01,9.4,9.7,"15:46:32",1
"18/12/20","16:00",0.0,10.1,95.2,1016.6,310.0,1.1,1.7,330.5,0.01,9.4,9.8,"15:50:24",1
"18/12/20","16:10",0.0,10.0,95.1,1016.6,311.0,1.0,1.3,330.2,0.00,9.3,9.7,"16:00:16",1
"18/12/20","16:20",0.0,10.0,95.3,1017.1,316.7,1.6,2.2,324.8,0.01,9.3,9.8,"16:16:08",1
"18/12/20","16:30",0.0,10.0,95.6,1017.3,309.9,1.3,2.0,324.1,0.00,9.4,9.5,"16:23:44",1
"18/12/20","16:40",0.0,9.9,95.6,1016.8,307.6,1.5,2.1,323.3,0.00,9.3,9.9,"16:37:20",1
"18/12/20","16:50",0.0,9.7,95.7,1017.1,284.3,1.2,1.6,309.5,0.00,9.1,9.6,"16:40:08",1
"18/12/20","17:00",0.0,9.6,96.0,1017.3,314.0,1.3,2.1,324.9,0.00,9.0,9.7,"16:51:44",1
"18/12/20","17:10",0.0,9.4,96.1,1017.3,308.1,1.7,2.1,310.6,0.00,8.9,9.8,"17:08:26",1
"18/12/20","17:20",0.0,9.2,96.5,1017.5,295.0,1.6,2.1,269.2,0.00,8.7,9.8,"17:18:00",1
"18/12/20","17:30",0.0,9.0,96.5,1017.1,318.9,1.1,1.4,306.6,0.00,8.5,9.8,"17:20:56",1
"18/12/20","17:40",0.0,8.7,96.6,1017.1,298.7,1.2,1.9,315.6,0.00,8.2,9.8,"17:39:56",1
"18/12/20","17:50",0.0,8.5,97.0,1017.3,305.7,1.5,1.9,318.1,0.00,8.1,9.7,"17:40:16",1
"18/12/20","18:00",0.0,8.3,97.0,1017.3,309.1,1.2,1.8,318.7,0.00,7.9,9.5,"17:50:32",1
"18/12/20","18:10",0.0,8.3,97.5,1017.8,311.7,1.3,2.2,323.0,0.00,8.0,9.5,"18:07:36",1
"18/12/20","18:20",0.0,8.0,97.2,1017.5,299.6,1.2,2.0,317.1,0.00,7.6,9.5,"18:11:20",1
"18/12/20","18:30",0.0,8.0,98.1,1018.0,313.8,1.6,2.0,318.1,0.00,7.8,9.4,"18:24:24",1
"18/12/20","18:40",0.0,7.9,97.2,1018.0,310.0,1.3,1.7,313.6,0.00,7.5,9.4,"18:32:00",1
"18/12/20","18:50",0.0,7.6,97.6,1018.0,312.6,1.2,2.4,320.9,0.00,7.3,9.3,"18:40:02",1
"18/12/20","19:00",0.0,7.4,97.9,1018.5,319.7,1.7,2.5,326.6,0.00,7.1,9.2,"18:52:16",1
"18/12/20","19:10",0.0,7.3,98.2,1018.0,305.8,1.7,2.1,320.6,0.00,7.1,9.3,"19:03:54",1
"18/12/20","19:20",0.0,7.6,98.4,1018.0,302.3,1.5,1.9,317.3,0.00,7.4,9.2,"19:17:04",1
"18/12/20","19:30",0.0,7.5,97.9,1018.2,297.6,1.5,2.0,309.1,0.00,7.2,9.1,"19:28:08",1
"18/12/20","19:40",0.0,7.6,98.7,1018.2,288.6,1.6,1.9,306.2,0.00,7.4,9.0,"19:39:20",1
"18/12/20","19:50",0.0,7.8,97.7,1018.0,327.2,1.2,1.9,319.5,0.00,7.5,9.0,"19:41:04",1
"18/12/20","20:00",0.0,7.3,98.4,1018.5,311.6,1.7,2.4,324.3,0.00,7.1,9.2,"19:51:20",1
"18/12/20","20:10",0.0,7.4,98.3,1018.5,308.0,1.5,1.8,316.5,0.00,7.2,9.0,"20:06:24",1
"18/12/20","20:20",0.0,7.6,98.2,1018.5,305.5,1.3,1.6,301.3,0.00,7.4,9.0,"20:11:36",1
"18/12/20","20:30",0.0,7.4,97.8,1018.5,285.7,0.8,1.6,262.0,0.00,7.1,8.8,"20:23:12",1
"18/12/20","20:40",0.0,7.5,98.6,1018.2,296.0,1.2,1.9,296.8,0.00,7.3,8.9,"20:36:08",1
"18/12/20","20:50",0.0,7.4,98.2,1018.2,299.0,1.0,1.7,325.2,0.00,7.2,8.7,"20:40:44",1
"18/12/20","21:00",0.0,7.2,98.1,1018.5,288.5,1.2,1.8,307.3,0.00,7.0,8.8,"20:59:20",1
"18/12/20","21:10",0.0,7.4,98.8,1018.5,310.2,1.5,2.4,324.9,0.00,7.3,8.7,"21:07:56",1
"18/12/20","21:20",0.0,7.0,97.6,1018.5,300.0,1.2,1.9,309.5,0.00,6.7,8.7,"21:18:38",1
"18/12/20","21:30",0.0,6.0,98.5,1018.2,315.4,2.2,2.7,317.9,0.00,5.8,8.7,"21:20:32",1
"18/12/20","21:40",0.0,6.1,99.2,1018.5,308.1,1.0,2.2,317.2,0.00,6.0,8.7,"21:30:08",1
"18/12/20","21:50",0.0,6.0,98.2,1018.7,285.0,1.0,2.6,288.9,0.00,5.8,8.7,"21:46:40",1
"18/12/20","22:00",0.0,6.0,98.7,1018.7,297.1,1.6,2.5,308.6,0.00,5.9,8.5,"21:58:00",1
"18/12/20","22:10",0.0,6.3,99.4,1018.7,290.8,1.6,1.9,295.4,0.00,6.3,8.4,"22:01:52",1
"18/12/20","22:20",0.0,6.5,98.6,1018.5,291.5,1.7,2.4,305.4,0.00,6.3,8.4,"22:19:36",1
"18/12/20","22:30",0.0,6.5,98.3,1018.5,300.1,2.0,3.3,316.0,0.00,6.3,8.5,"22:21:12",1
"18/12/20","22:40",0.0,6.5,99.3,1018.5,306.5,1.8,3.4,311.9,0.00,6.4,8.2,"22:38:48",1
"18/12/20","22:50",0.0,6.7,98.9,1018.5,312.0,2.3,3.6,317.4,0.00,6.6,8.3,"22:41:12",1
"18/12/20","23:00",0.0,6.9,98.9,1019.0,319.9,2.1,2.8,328.6,0.00,6.8,8.3,"22:50:22",1
"18/12/20","23:10",0.0,6.9,98.8,1019.0,304.6,2.2,3.7,309.8,0.00,6.8,8.2,"23:07:06",1
"18/12/20","23:20",0.0,7.0,98.9,1019.0,318.8,3.0,3.4,309.3,0.00,6.9,8.0,"23:17:02",1
"18/12/20","23:30",0.0,7.0,98.8,1019.0,317.7,2.5,3.3,313.7,0.00,6.9,8.1,"23:24:48",1
"18/12/20","23:40",0.0,7.0,98.7,1018.5,317.5,3.2,4.4,323.4,0.00,6.8,8.2,"23:33:50",1
"18/12/20","23:50",0.0,6.7,98.7,1018.5,320.2,2.2,2.6,314.4,0.00,6.6,8.2,"23:40:46",1
"18/12/20","24:00",0.0,6.9,98.8,1019.2,311.3,2.7,3.6,313.8,0.00,6.8,8.1,"23:57:54",1
